User: anonymous   Login
Location: Unspecified
(33.2407°S, 0.0000°E)
Time: 17:46:45
(UTC+00:00)
Language:

Envisat - Orbit

View from above orbital plane
View from above orbital plane
View from above satellite
View from above satellite

Ground track
Ground track

The orbit data is extracted from the following two-line orbital elements,

1 27386U 02009A   20220.00923660  .00000004  00000-0  14598-4 0  9994
2 27386  98.1364 224.4002 0001418  89.1076 327.8910 14.37988117965883
Epoch (UTC): 07 August 2020 00:13:18
Eccentricity: 0.0001418
inclination: 98.1364°
perigee height: 764 km
apogee height: 766 km
right ascension of ascending node: 224.4002°
argument of perigee: 89.1076°
revolutions per day: 14.37988117
mean anomaly at epoch: 327.8910°
orbit number at epoch: 96588

The dashed part of the orbit path shows where the satellite is in the earth's shadow,  

DLR